Flag for U.S.A. Weather past 2 weeks in Milwaukee, Wisconsin, U.S.A.

Now
75 °F

Sunny.


Feels Like: 78 °F
Forecast: 66 / 82 °F
Wind: 18 mph from West

Location: Milwaukee / Timmerman

Current Time: Jul 31, 2015 at 11:00:41 AM

Latest Report: Jul 31, 2015 at 9:45 AM


Visibility: 10 mi

Pressure: 29.97 "Hg

Humidity: 47%

Dew point: 54 °F

Location of MilwaukeeLocation

Historic Weather in Milwaukee — Graph

°F

Milwaukee temperature yesterday

Maximum temperature yesterday: 86 °F (at 3:45 PM)
Minimum temperature yesterday: 63 °F (at 5:55 AM)
Average temperature yesterday: 71 °F

Past Weeks' High & Low Weather Summary

 TemperatureHumidityPressure
High88 °F (Jul 17, 2:45 PM)94% (Jul 16, 10:55 PM)30.06 "Hg (Jul 16, 10:55 PM)
Low59 °F (Jul 21, 5:15 AM)23% (Jul 29, 4:45 PM)29.73 "Hg (Jul 17, 4:15 AM)
Average71 °F67%29.93 "Hg
* Reported Jul 16 9:45 AM — Jul 31 9:45 AM, Milwaukee, Weather by CustomWeather, © 2015

Note: Actual official high and low records may vary slightly from our data, if they occured in-between our weather recording intervals... More about our weather records

Advertising

Milwaukee weather history for previous 24 hours

 ConditionsComfort  
Time TempWeatherWind HumidityBarometerVisibility
9:45 AM
Fri, Jul 31
75 °FSunny.18 mph47%29.97 "Hg10 mi
8:45 AM75 °FSunny.12 mph54%29.98 "Hg10 mi
7:45 AM72 °FSunny.8 mph61%29.99 "Hg10 mi
7:15 AM70 °FSunny.9 mph60%30.00 "Hg10 mi
6:55 AM68 °FSunny.7 mph64%30.00 "Hg10 mi
6:35 AM66 °FPassing clouds.6 mph68%29.99 "Hg10 mi
6:15 AM64 °FPassing clouds.6 mph73%29.99 "Hg10 mi
5:55 AM63 °FClear.5 mph73%29.99 "Hg10 mi
5:15 AM63 °FClear.6 mph73%29.99 "Hg10 mi
4:55 AM64 °FClear.5 mph68%29.99 "Hg10 mi
4:35 AM64 °FClear.5 mph68%29.99 "Hg10 mi
4:15 AM64 °FClear.6 mph68%30.00 "Hg10 mi
3:55 AM66 °FClear.6 mph64%30.00 "Hg10 mi
3:35 AM68 °FClear.8 mph60%30.00 "Hg10 mi
3:15 AM68 °FClear.7 mph60%30.01 "Hg10 mi
2:55 AM68 °FClear.8 mph60%30.01 "Hg10 mi
2:35 AM68 °FClear.7 mph60%30.01 "Hg10 mi
2:15 AM68 °FClear.8 mph60%30.00 "Hg10 mi
1:55 AM68 °FClear.7 mph60%30.00 "Hg10 mi
1:15 AM68 °FClear.7 mph56%30.00 "Hg10 mi
12:55 AM68 °FClear.7 mph60%30.01 "Hg10 mi
12:35 AM68 °FClear.6 mph56%30.00 "Hg10 mi
12:15 AM70 °FClear.6 mph53%30.00 "Hg10 mi
11:55 PM
Thu, Jul 30
70 °FClear.5 mph53%30.00 "Hg10 mi
11:35 PM72 °FClear.6 mph50%30.00 "Hg10 mi
11:15 PM72 °FClear.5 mph50%30.00 "Hg10 mi
10:55 PM72 °FClear.7 mph50%30.00 "Hg10 mi
10:15 PM73 °FClear.9 mph47%30.00 "Hg10 mi
9:55 PM73 °FClear.8 mph47%29.99 "Hg10 mi
9:35 PM73 °FClear.6 mph47%29.99 "Hg10 mi
9:15 PM73 °FSunny.6 mph47%29.99 "Hg10 mi
7:45 PM84 °FSunny.9 mph29%29.97 "Hg10 mi
5:45 PM84 °FSunny.21 mph27%29.98 "Hg10 mi
4:45 PM86 °FScattered clouds.16 mph25%29.98 "Hg10 mi
3:45 PM86 °FScattered clouds.16 mph25%30.00 "Hg10 mi
2:45 PM84 °FScattered clouds.14 mph29%30.00 "Hg10 mi
1:45 PM84 °FScattered clouds.8 mph33%30.02 "Hg10 mi
12:45 PM84 °FSunny.18 mph29%30.03 "Hg10 mi
11:45 AM82 °FSunny.6 mph32%30.03 "Hg10 mi
Weather by CustomWeather, © 2015

See weather overviewHow to use our weather pages